Toluca Jose Maria, Mexico

5:48 PM CST on March 26, 2017 (GMT -0600)
Lic Adolfo Lopez Mateos International

Weather History for MMTO - May, 2013

Change the Weather History Date:

Friday, May 10, 2013

  Actual Average Record
Temperature  
Mean Temperature 60 °F -  
Max Temperature 78 °F 73 °F 87 °F (1998)
Min Temperature 42 °F 44 °F 42 °F (2000)
Degree Days  
Heating Degree Days 5    
Growing Degree Days 10 (Base 50)    
Moisture  
Dew Point 27 °F    
Average Humidity 33    
Maximum Humidity 61    
Minimum Humidity 12    
Precipitation  
Precipitation 0.00 in - - ()
Sea Level Pressure  
Sea Level Pressure 30.24 in    
Wind  
Wind Speed 4 mph ()    
Max Wind Speed 17 mph    
Max Gust Speed -    
Visibility 3.5 miles    
Events      
Averages and records for this station are not official NWS values.
T = Trace of Precipitation, MM = Missing Value Source: Averaged Metar Reports

Daily Weather History Graph

Daily Weather History Graph

Search for Another Location

Airport or City:

Trip Planner

Search our weather history database for the weather conditions in past years. The results will help you decide how hot, cold, wet, or windy it might be!

Date:

Astronomy

May. 10, 2013 Rise Set
Actual Time 7:05 AM CDT 8:04 PM CDT
Civil Twilight 6:41 AM CDT 8:27 PM CDT
Nautical Twilight 6:14 AM CDT 8:55 PM CDT
Astronomical Twilight 5:46 AM CDT 9:23 PM CDT
Moon 7:31 AM CDT (5/10) 8:51 PM CDT (5/10)
Length of Visible Light 13h 45m
Length of Day
12h 59m
New Moon, 0% of the Moon is Illuminated
May 10
New Moon
May 17
First Quarter
May 24
Full
May 31
Last Quarter
Jun 8
New

Hourly Weather History & Observations

Time (CDT) Temp. Windchill Dew Point Humidity Pressure Visibility Wind Dir Wind Speed Gust Speed Precip Events Conditions
12:45 AM 53.6 °F - 28.4 °F 38% 29.83 in 3.0 mi Calm Calm - N/A   Haze
1:45 AM 51.8 °F - 28.4 °F 41% 30.47 in 3.0 mi Calm Calm - N/A   Haze
2:45 AM 50.0 °F - 28.4 °F 43% 30.46 in 3.0 mi Calm Calm - N/A   Haze
3:45 AM 46.4 °F - 30.2 °F 53% 29.83 in 3.0 mi Calm Calm - N/A   Scattered Clouds
4:45 AM 44.6 °F 43.1 °F 28.4 °F 53% 30.40 in 3.0 mi East 3.5 mph - N/A   Mostly Cloudy
5:45 AM 46.4 °F - 32.0 °F 57% 30.41 in 3.0 mi Calm Calm - N/A   Mostly Cloudy
6:45 AM 42.8 °F - 30.2 °F 61% 29.88 in 3.0 mi Calm Calm - N/A   Scattered Clouds
7:45 AM 44.6 °F 42.2 °F 30.2 °F 57% 30.44 in 2.0 mi WSW 4.6 mph - N/A   Clear
8:42 AM 51.8 °F - 33.8 °F 50% 30.45 in 2.0 mi East 2.3 mph - N/A   Clear
9:49 AM 57.2 °F - 32.0 °F 38% 29.88 in 2.0 mi NNE 3.5 mph - N/A   Clear
10:44 AM 64.4 °F - 28.4 °F 26% 30.46 in 2.0 mi NW 6.9 mph - N/A   Partly Cloudy
11:43 AM 68.0 °F - 30.2 °F 24% 30.46 in 3.0 mi NW 3.5 mph - N/A   Haze
12:49 PM 71.6 °F - 24.8 °F 17% 29.81 in 3.0 mi West 10.4 mph - N/A   Haze
1:44 PM 73.4 °F - 24.8 °F 16% 30.41 in 3.0 mi SW 8.1 mph - N/A   Haze
2:45 PM 73.4 °F - 21.2 °F 14% 30.38 in 3.0 mi NW 11.5 mph - N/A   Haze
3:41 PM 75.2 °F - 23.0 °F 14% 29.77 in 3.0 mi North 11.5 mph - N/A   Haze
4:44 PM 78.8 °F - 21.2 °F 12% 30.33 in 3.0 mi WNW 11.5 mph - N/A   Haze
5:44 PM 73.4 °F - 21.2 °F 14% 30.32 in 3.0 mi West 17.3 mph - N/A   Haze
6:44 PM 71.6 °F - 28.4 °F 20% 29.81 in 4.0 mi West 15.0 mph - N/A   Mostly Cloudy
7:44 PM 66.2 °F - 19.4 °F 17% 30.35 in 4.0 mi West 12.7 mph - N/A   Mostly Cloudy
8:43 PM 62.6 °F - 24.8 °F 24% 30.38 in 5.0 mi WNW 8.1 mph - N/A   Mostly Cloudy
9:45 PM 57.2 °F - 28.4 °F 33% - 7.0 mi NNW 6.9 mph - N/A   Scattered Clouds
10:45 PM 57.2 °F - 28.4 °F 33% 30.43 in 7.0 mi NNW 8.1 mph - N/A   Partly Cloudy
11:45 PM 51.8 °F - 30.2 °F 44% 30.45 in 7.0 mi NNW 6.9 mph - N/A   Partly Cloudy